This is the latest recevied weather packets stored in our database for station/object K7MT-WX. If no packets are shown the sender has not sent any weather packets the latest 10 day(s).
| Time | Temp. | Humidity | Pressure | Rain* | Wind** | Luminosity | Snow |
|---|---|---|---|---|---|---|---|
| 1787903969 | 13.89° C | 80% | 1015.2 hPa | 0 mm | - | - | - |
| 1787903069 | 13.89° C | 81% | 1015.1 hPa | 0 mm | - | - | - |
| 1787902169 | 13.89° C | 81% | 1015.3 hPa | 0 mm | - | - | - |
| 1787901269 | 13.89° C | 79% | 1015 hPa | 0 mm | - | - | - |
| 1787900369 | 15° C | 76% | 1015 hPa | 0 mm | - | - | - |
| 1787899469 | 15.56° C | 75% | 1014.9 hPa | 0 mm | - | - | - |
| 1787898569 | 15.56° C | 75% | 1014.9 hPa | 0 mm | - | - | - |
| 1787897669 | 16.67° C | 69% | 1014.9 hPa | 0 mm | - | - | - |
| 1787896769 | 19.44° C | 59% | 1014.7 hPa | 0 mm | - | - | - |
| 1787895869 | 20° C | 57% | 1014.7 hPa | 0 mm | - | - | - |
| 1787894969 | 19.44° C | 59% | 1014.6 hPa | 0 mm | - | - | - |
| 1787894069 | 19.44° C | 61% | 1014.6 hPa | 0 mm | - | - | - |
| 1787893169 | 19.44° C | 60% | 1014.4 hPa | 0 mm | - | - | - |
| 1787892269 | 20° C | 59% | 1014.5 hPa | 0 mm | - | - | - |
| 1787891369 | 20.56° C | 60% | 1014.4 hPa | 0 mm | - | - | - |
| 1787890469 | 20.56° C | 61% | 1014 hPa | 0 mm | - | - | - |
| 1787889569 | 21.11° C | 59% | 1013.9 hPa | 0 mm | - | - | - |
| 1787888669 | 22.22° C | 55% | 1013.5 hPa | 0 mm | - | - | - |
| 1787887769 | 22.78° C | 54% | 1013.3 hPa | 0 mm | - | - | - |
| 1787886869 | 25° C | 45% | 1013.1 hPa | 0 mm | - | - | - |
| 1787885969 | 26.11° C | 36% | 1012.7 hPa | 0 mm | - | - | - |
| 1787885069 | 26.67° C | 35% | 1012.5 hPa | 0 mm | - | - | - |
| 1787884169 | 26.67° C | 35% | 1012.5 hPa | 0 mm | - | - | - |
| 1787883269 | 26.67° C | 38% | 1012.4 hPa | 0 mm | - | - | - |
| 1787882369 | 27.22° C | 35% | 1012.7 hPa | 0 mm | - | - | - |
* Rain latest hour (hover to see other rain measurements)
** Current wind speed in m/s (hover to see current wind gust speed)